Miscellaneous Local Product
Issued by NWS Hastings, NE

Home | Current Version | Previous Version | Graphics & Text | Print | Product List | Glossary On
Versions: 1 2 3 4 5 6 7 8 9 10 11 12 13 14 15 16 17 18 19 20 21 22 23 24 25 26 27 28 29 30 31 32 33 34 35 36 37 38 39 40 41 42 43 44 45 46 47 48 49 50
000
AXUS43 KGID 272102
MISGRI

GID CWA HOURLY WEATHER ROUNDUP
NATIONAL WEATHER SERVICE HASTINGS NE
400 PM CDT WED AUG 27 2014

NOTE: "FAIR" INDICATES FEW OR NO CLOUDS BELOW 12,000 FEET WITH NO
SIGNIFICANT WEATHER AND/OR OBSTRUCTIONS TO VISIBILITY.

...SOUTH CENTRAL NEBRASKA...

CITY           SKY/WX    TMP DP  RH WIND       PRES   REMARKS
GRAND ISLAND   CLOUDY    77  69  76 SE9       30.09F
HASTINGS       CLOUDY    75  67  76 SE10G16   30.08F
KEARNEY        CLOUDY    73  70  88 E10       30.09F
ORD            CLOUDY    73  67  81 SE7       30.08F
YORK           CLOUDY    75 N/A N/A SE10      30.09F
AURORA         PTSUNNY   76  71  84 SE8       30.08F
LEXINGTON      CLOUDY    75  69  82 E15       30.07F
HOLDREGE       CLOUDY    73  69  87 E15       30.08F
HEBRON         CLOUDY    78  69  73 E8        30.06F

...NEBRASKA PANHANDLE...

CITY           SKY/WX    TMP DP  RH WIND       PRES   REMARKS
CHADRON        TSTM      66  64  93 NW5       30.07S
ALLIANCE       LGT RAIN  66  59  78 W15       30.08F
SCOTTSBLUFF    LGT RAIN  62  62 100 NW6       30.11F
SIDNEY         CLOUDY    80  59  48 VRB7      30.09F

...WESTERN AND NORTH CENTRAL NEBRASKA...

CITY           SKY/WX    TMP DP  RH WIND       PRES   REMARKS
VALENTINE      PTSUNNY   77  65  66 SE16      30.06F
AINSWORTH      CLOUDY    73  65  76 S12G20    30.09F
ONEILL         CLOUDY    72  67  85 SE7       30.10F
BROKEN BOW     CLOUDY    75  67  76 SE12G21   30.09F
IMPERIAL       PTSUNNY   78  63  59 S10       30.04F
NORTH PLATTE   PTSUNNY   73  67  81 E13       30.06F
MCCOOK         CLOUDY    80  66  62 E13       30.04F

...EASTERN NEBRASKA...

CITY           SKY/WX    TMP DP  RH WIND       PRES   REMARKS
NORFOLK        CLOUDY    72  68  87 SE8       30.10F
SO SIOUX CITY  CLOUDY    71  68  90 SE6       30.10F
TEKAMAH        CLOUDY    73  69  87 CALM      30.08F
COLUMBUS       CLOUDY    72  68  88 S9        30.09F
ALBION         CLOUDY    73  68  82 SE7       30.09F
OMAHA EPPLEY   CLOUDY    74  69  85 CALM      30.06F
OFFUTT AFB     CLOUDY    74  74  99 S9        30.06F
MILLARD        CLOUDY    76  69  79 S5        30.06F
LINCOLN        CLOUDY    75  69  81 SE12      30.09F
NEBRASKA CITY  CLOUDY    73  73  97 SW12      30.09F
BEATRICE       LGT RAIN  74  73  94 E9        30.09F
FALLS CITY     PTSUNNY   80  70  71 SE3       30.08F

...NORTHERN KANSAS...

CITY           SKY/WX    TMP DP  RH WIND       PRES   REMARKS
GOODLAND       PTSUNNY   77  65  66 S14       30.07F
HILL CITY      HVY RAIN  70  68  93 E10       30.06F VSB 1/2
NORTON         RAIN      75  61  60 E12G17    30.05S
PHILLIPSBURG   RAIN      79  66  65 E13       30.05F
SMITH CENTER   CLOUDY    75  72  88 E13       30.07S
BELOIT         CLOUDY    79  70  73 SE6       30.04F
HAYS           CLOUDY    82  66  57 SE21G26   30.04F
RUSSELL        LGT RAIN  76  68  76 SE13      30.04F
CONCORDIA      CLOUDY    80  74  81 E8        30.06F
SALINA         CLOUDY    87  66  49 NW6       30.05F
TOPEKA         PTSUNNY   87  73  62 NE9       30.05F HX  94



USA.gov is the U.S. government's official web portal to all federal, state and local government web resources and services.